User: anonymous   Login
Location: Boiro
(42.6475°N, 8.8834°W)
Time: 06:59:47
(UTC+02:00)
Language:

DELFI C3 - Orbit

View from above orbital plane
View from above orbital plane
View from above satellite
View from above satellite

Ground track
Ground track

The orbit data is extracted from the following two-line orbital elements,

1 32789U 08021G   22221.87386330  .00012156  00000-0  65622-3 0  9996
2 32789  97.3374 246.2715 0011861 132.8608 227.3623 15.14813495780018
Epoch (UTC): 09 August 2022 20:58:21
Eccentricity: 0.0011861
inclination: 97.3374°
perigee height: 513 km
apogee height: 530 km
right ascension of ascending node: 246.2715°
argument of perigee: 132.8608°
revolutions per day: 15.14813495
mean anomaly at epoch: 227.3623°
orbit number at epoch: 78001

The dashed part of the orbit path shows where the satellite is in the earth's shadow,  

DLR